Regional Weather Roundup
Issued by NWS Upton, NY

Current Version | Previous Version | Text Only | Print | Product List | Glossary On
Versions: 1 2 3 4 5 6 7 8 9 10 11 12 13 14 15 16 17 18 19 20 21 22 23 24 25 26 27 28 29 30 31 32 33 34 35 36 37 38 39 40 41 42 43 44 45 46 47 48 49 50
847 ASUS41 KOKX 152208 RWROKX REGIONAL WEATHER ROUNDUP NATIONAL WEATHER SERVICE NEW YORK NY 500 PM EST SUN JAN 15 2017 NOTE: "FAIR" INDICATES FEW OR NO CLOUDS BELOW 12,000 FEET WITH NO SIGNIFICANT WEATHER AND/OR OBSTRUCTIONS TO VISIBILITY. NYZ071-072-176-178-NJZ106-104-152300- NEW YORK CITY METRO AREA CITY SKY/WX TMP DP RH WIND PRES REMARKS Central Park CLEAR 37 20 50 W5 30.36R WCI 33 Wall St Helipt CLEAR 39 21 48 W6 30.36R WCI 35 Bronx Bot Gard NOT AVBL LaGuardia APRT MOCLDY 39 22 50 NW9 30.34R WCI 33 Kennedy INTL MOCLDY 38 19 46 NW6 30.35R WCI 33 Breezy Point N/A 36 N/A N/A NW5 N/A WCI 32 Newark/Liberty MOCLDY 37 20 50 NW9G16 30.35R WCI 30 Teterboro CLEAR 38 21 50 NW9 30.34R WCI 31 $$ NYZ177-179-078>081-152300- LONG ISLAND NEW YORK CITY SKY/WX TMP DP RH WIND PRES REMARKS Jones Beach N/A 36 N/A N/A N5 N/A WCI 32 Matinecock PT N/A 41 N/A N/A W6 N/A Farmingdale CLEAR 36 20 52 W5 30.34R WCI 32 MacArthur/ISP PTCLDY 34 21 59 W5 30.33R WCI 30 Shirley CLEAR 33 22 63 W5 30.34R WCI 29 Westhampton CLEAR 31 19 61 W3 30.35R Southampton NOT AVBL Bridgehampton NOT AVBL East Hampton N/A 32 20 62 CALM 30.33R Montauk N/A 32 22 66 CALM 30.34R $$ NYZ052-065-067-152300- HUDSON VALLEY CITY SKY/WX TMP DP RH WIND PRES REMARKS White Plains CLEAR 34 19 54 NW6 30.31R WCI 29 Newburgh CLEAR 34 21 60 W9 30.32R WCI 26 Montgomery CLEAR 34 19 54 SW6 30.31R WCI 29 Poughkeepsie CLEAR 33 19 56 CALM 30.32R Albany PTCLDY 31 13 47 W8 30.35R WCI 23 $$ NJZ001-105-106-008-010-013-015-019>022-104-152300- NEW JERSEY CITY SKY/WX TMP DP RH WIND PRES REMARKS Newark/Liberty MOCLDY 37 20 50 NW9G16 30.35R WCI 30 Teterboro CLEAR 38 21 50 NW9 30.34R WCI 31 Caldwell CLEAR 36 19 50 NW5 30.35R WCI 32 Somerville CLEAR 34 20 56 NW6 30.35R WCI 29 Linden N/A 37 20 50 N6 30.36R WCI 32 Sussex CLEAR 33 19 56 NW6 30.34R WCI 28 Andover N/A 32 19 58 VRB3 30.34R Trenton CLEAR 35 21 56 NW5 30.36R WCI 31 Millville CLEAR 35 25 66 CALM 30.36R Atlantic City CLEAR 37 23 56 NW6 30.36R WCI 32 Wrightstown CLOUDY 34 22 60 NW7 30.34R WCI 28 Toms River CLEAR 35 21 56 NW6 30.37R WCI 30 Belmar CLEAR 35 21 56 W6 30.36R WCI 30 $$ PAZ047>061-062-071-152300- EASTERN PENNSYLVANIA CITY SKY/WX TMP DP RH WIND PRES REMARKS Philadelphia MOCLDY 38 20 48 N7 30.37R WCI 33 Allentown CLEAR 32 19 58 N8 30.37R WCI 25 Scranton CLOUDY 30 20 66 NW7 30.35R WCI 23 $$ CTZ002-004>006-009-010-012-RIZ004-006-007-MAZ004-011-015-152300- SOUTHERN NEW ENGLAND IN CT CITY SKY/WX TMP DP RH WIND PRES REMARKS Bradley INTL CLEAR 33 15 47 NW6 30.32R WCI 28 Hartford CLEAR 36 14 40 NW3 30.33R Danbury CLEAR 30 19 63 VRB3 30.33R Wtrbury/Oxford PTCLDY 36 12 38 CALM 30.31R Bridgeport CLEAR 37 19 48 NW5 30.33R WCI 33 Meriden CLEAR 36 13 38 NW3 30.32R New Haven PTCLDY 37 16 42 CALM 30.33R Chester N/A 34 12 40 CALM 30.31R Groton CLEAR 35 15 44 N3 30.32R Wilimantic CLEAR 36 16 44 NW3 30.32R IN RI CITY SKY/WX TMP DP RH WIND PRES REMARKS Providence PTCLDY 35 12 38 NW5 30.32R WCI 31 Block Island NOT AVBL Westerly CLEAR 36 13 38 NW3 30.33R IN MA CITY SKY/WX TMP DP RH WIND PRES REMARKS Boston PTCLDY 35 12 38 NW9 30.33R WCI 28 Worcester CLEAR 29 12 49 W7 30.28R WCI 22 Westfield CLEAR 32 16 51 NW6 30.31R WCI 26 Provincetown CLEAR 34 15 46 NW10 30.32R WCI 26 Nantucket CLEAR 33 18 53 N10 30.31R WCI 25 $$ ANZ330-335-338-340-345-350-353-355-152300- COASTAL MARINE OBSERVATIONS STATION/POSITION TIME SKY/WX TEMP WIND PRES VSBY WAVE AIR SEA DIR/SP/G HT/PER (UTC) (F) (DEG/KT/KT) (MB) (MI) (FT/S) NY HARB ENTRANCE 2050 38 44 310/ 10/ 14 1027.2 2/11 20 S FIRE ISLAND 2150 37 45 330/ 8/ 10 1027.3 2/11 GREAT SOUTH BAY NOT AVBL 23 SSW MONTAUK P 2050 37 47 310/ 8/ 12 1027.2 2/10 15 E BARNEGAT LI 2130 45 N/A 2/11 HUDSON CANYON 2050 40 53 1027.0 4/ 5 KINGS POINT 2130 38 38 1027.1 EXECUTION ROCKS 2145 39 290/ 6/ 8 N/A CENTRAL LI SOUND 2115 40 310/ 8/ 8 N/A EASTERN LI SOUND NOT AVBL ROBBINS REEF 2130 38 330/ 7/ 9 1027.6 $$ >>>>>>>>>>>>>>>>>>>>>>>>>>>> KEY <<<<<<<<<<<<<<<<<<<<<<<<<<< > < > SKY/WX - Sky Condition/Present Weather < > TMP - Temperature in Fahrenheit < > DP - Dew Point in Fahrenheit < > RH - Relative Humidity in Percent < > WIND - Direction (from) and Speed in MPH < > PRES - Mean Sea Level Pressure (inches of Hg) < > WCI - Wind Chill Index < > VSB - VISIBILITY IN MILES < > HX - HEAT INDEX < > TC - TEMPERATURE IN CELSIUS < > VRB - VARIABLE WIND DIRECTION < > < >>>>>>>>>>>>>>>>>>>>>>>>>>>> KEY <<<<<<<<<<<<<<<<<<<<<<<<<<<

USA.gov is the U.S. government's official web portal to all federal, state and local government web resources and services.